EW9507 Weather Reports


Display with metric or nautical units.
time (UTC)temp
F
wind
direction
speed
MPH
gust
MPH
rain 1hr
in
rain 24hr
in
rain mn
in
humidity
%
barometer
mb
20260506111551 15 112 1.0 3.0 0.00 0.00 0.00 83 1020.6
20260506110051 15 105 1.0 3.0 0.00 0.00 0.00 82 1020.6
20260506104545 16 117 2.0 3.0 0.00 0.00 0.00 82 1020.5
20260506103042 17 129 1.0 2.0 0.00 0.00 0.00 84 1020.5
20260506101543 16 164 0.0 2.0 0.00 0.00 0.00 84 1020.4
20260506100042 16 178 1.0 4.0 0.00 0.00 0.00 83 1020.3
20260506094532 16 188 0.0 3.0 0.00 0.00 0.00 83 1020.1
20260506093029 16 178 0.0 3.0 0.00 0.00 0.00 83 1020.1
20260506091527 17 178 1.0 3.0 0.00 0.00 0.00 82 1020.0
20260506090025 16 152 1.0 4.0 0.00 0.00 0.00 82 1020.0
20260506084622 17 182 4.0 5.0 0.00 0.00 0.00 82 1020.0
20260506083050 17 178 0.0 4.0 0.00 0.00 0.00 81 1019.9
20260506081550 18 178 3.0 5.0 0.00 0.00 0.00 83 1020.0
20260506073009 17 188 1.0 3.0 0.00 0.00 0.00 81 1019.7
20260506071507 18 178 4.0 8.0 0.00 0.00 0.00 79 1019.6
20260506061544 21 178 0.0 2.0 0.00 0.00 0.00 77 1019.3
20260506044527 28 295 2.0 3.0 0.00 0.00 0.00 64 1018.3
20260506043044 29 331 1.0 4.0 0.00 0.00 0.00 64 1018.1
20260506041543 29 1 1.0 5.0 0.00 0.00 0.00 63 1018.1
20260506040038 29 300 2.0 4.0 0.00 0.00 0.00 61 1018.0
20260506034539 30 310 2.0 4.0 0.00 0.00 0.00 61 1017.8
20260506033036 31 324 1.0 5.0 0.00 0.00 0.00 63 1017.5
20260506031536 32 20 3.0 6.0 0.00 0.00 0.00 60 1017.3
20260506030002 32 4 2.0 5.0 0.00 0.00 0.00 61 1016.9
20260506024600 33 334 2.0 4.0 0.00 0.00 0.00 59 1016.6
20260506023024 35 331 1.0 5.0 0.00 0.00 0.00 57 1016.2
20260506021524 36 1 5.0 13.0 0.00 0.00 0.00 55 1016.1
20260506020052 37 15 9.0 15.0 0.00 0.00 0.00 50 1015.8
20260506014559 37 358 9.0 21.0 0.00 0.00 0.00 51 1015.8
20260506013020 38 356 13.0 20.0 0.00 0.00 0.00 44 1015.4
20260506011529 38 3 11.0 18.0 0.00 0.00 0.00 45 1015.3
20260506010015 38 343 11.0 16.0 0.00 0.00 0.00 44 1015.2
20260506004525 38 338 14.0 26.0 0.00 0.00 0.00 45 1015.1
20260506003011 39 354 14.0 23.0 0.00 0.00 0.00 44 1014.8
20260506001512 40 351 15.0 26.0 0.00 0.00 0.00 43 1014.4
20260506000007 41 6 16.0 26.0 0.00 0.00 0.00 39 1014.2
20260505234507 41 11 17.0 27.0 0.00 0.00 0.00 37 1013.9
20260505233004 41 4 18.0 24.0 0.00 0.00 0.00 37 1013.5
20260505231504 42 4 15.0 23.0 0.00 0.00 0.00 37 1013.5
20260505230002 41 358 11.0 23.0 0.00 0.00 0.00 37 1013.4
20260505224501 42 359 18.0 23.0 0.00 0.00 0.00 35 1013.3
20260505223102 43 11 11.0 29.0 0.00 0.00 0.00 36 1013.2
20260505221604 42 329 8.0 24.0 0.00 0.00 0.00 35 1013.3
20260505220057 42 352 11.0 23.0 0.00 0.00 0.00 35 1013.3
20260505214604 42 343 10.0 22.0 0.00 0.00 0.00 34 1013.3
20260505213059 41 9 9.0 22.0 0.00 0.00 0.00 34 1013.2
20260505211555 42 349 12.0 26.0 0.00 0.00 0.00 35 1013.3
20260505210052 42 352 15.0 24.0 0.00 0.00 0.00 34 1013.2
20260505204551 43 318 13.0 20.0 0.00 0.00 0.00 34 1013.3
20260505203051 42 333 13.0 24.0 0.00 0.00 0.00 35 1013.3
20260505201550 42 27 15.0 23.0 0.00 0.00 0.00 37 1013.2
20260505200015 42 341 12.0 22.0 0.00 0.00 0.00 37 1013.2
20260505194514 42 352 14.0 22.0 0.00 0.00 0.00 38 1013.4
20260505193010 42 338 11.0 21.0 0.00 0.00 0.00 38 1013.2
20260505191511 41 339 13.0 20.0 0.00 0.00 0.00 40 1013.3
20260505190008 41 325 12.0 27.0 0.00 0.00 0.00 41 1013.4
20260505184514 41 8 14.0 23.0 0.00 0.00 0.00 42 1013.3
20260505183007 40 338 11.0 30.0 0.00 0.00 0.00 43 1013.4
20260505181504 40 334 11.0 22.0 0.00 0.00 0.00 42 1013.5
20260505180008 41 14 17.0 28.0 0.00 0.00 0.00 40 1013.5
20260505180006 41 354 17.0 28.0 0.00 0.00 0.00 40 1013.5
20260505174502 41 296 14.0 26.0 0.00 0.00 0.00 41 1013.4
20260505173001 40 338 13.0 30.0 0.00 0.00 0.00 43 1013.5
20260505171559 40 338 15.0 25.0 0.00 0.00 0.00 45 1013.6
20260505170057 40 347 15.0 25.0 0.00 0.00 0.00 44 1013.6
20260505164557 39 359 17.0 30.0 0.00 0.00 0.00 46 1013.5
20260505163056 39 3 20.0 28.0 0.00 0.00 0.00 47 1013.4
20260505161551 38 9 12.0 25.0 0.00 0.00 0.00 49 1013.3
20260505153101 38 358 16.0 21.0 0.00 0.00 0.00 50 1013.8
20260505151543 37 4 10.0 18.0 0.00 0.00 0.00 55 1013.8
20260505124550 31 324 3.0 4.0 0.00 0.00 0.00 85 1013.0
20260505123056 31 84 2.0 3.0 0.00 0.00 0.00 87 1012.7
20260505121544 30 1 1.0 3.0 0.00 0.00 0.00 86 1012.4
20260505120051 31 15 1.0 4.0 0.00 0.00 0.00 87 1012.2
20260505114534 30 314 2.0 3.0 0.00 0.00 0.00 87 1011.9
20260505113031 30 295 1.0 2.0 0.00 0.00 0.00 86 1011.7